Location: Hermon
(51.9500°N, 4.3833°W)
Time: 09:37:13
(UTC+00:00)

Daily predictions for brighter satellites

Satellite Brightness Start Highest point End
(mag) Time Altitude Azimuth Time Altitude Azimuth Time Altitude Azimuth
STARLINK-1201 3.8 21:04:35 10° W 21:08:44 81° N 21:12:54 10° E
STARLINK-1119 3.8 21:05:11 10° WNW 21:09:16 62° SSW 21:13:22 10° SE
Meteor 1-4 Rocket 4.2 21:06:28 10° SW 21:09:42 36° WNW 21:12:58 10° N
Cosmos 1437 Rocket 2.8 21:07:04 10° S 21:10:47 57° E 21:14:33 10° NNE
STARLINK-1240 3.7 21:06:58 10° SW 21:11:03 60° SSE 21:15:08 10° ENE
Cosmos 1378 4.4 21:10:29 10° SE 21:13:31 24° E 21:16:34 10° NE
ISS -1.4 21:11:50 10° WSW 21:13:44 14° SW 21:15:38 10° S
STARLINK-1206 3.8 21:09:35 10° W 21:13:44 80° N 21:17:55 10° E
STARLINK-1114 3.8 21:10:08 10° WNW 21:14:13 59° SSW 21:18:18 10° SE
Meteor 1-15 Rocket 4.4 21:09:00 10° N 21:14:58 76° ENE 21:20:53 10° SSE
STARLINK-1203 3.7 21:11:45 10° WSW 21:15:54 63° SSE 21:20:04 10° ENE
STARLINK-1216 3.6 21:11:54 10° WSW 21:16:00 63° SSE 21:20:07 10° ENE
Lacrosse 5 3.4 21:12:31 10° WNW 21:16:38 25° SW 21:20:43 10° S
Cosmos 304 Rocket 4.0 21:12:38 10° S 21:17:14 49° ESE 21:21:53 10° NE
NOSS 8 (E) 4.3 21:15:05 10° SSW 21:18:10 50° SE 21:21:09 10° NE
USA 215 3.9 21:11:49 10° E 21:18:14 59° N 21:24:38 10° WNW
STARLINK-1205 3.8 21:14:33 10° W 21:18:42 79° N 21:22:52 10° E
STARLINK-1130 (DARKSAT) 3.9 21:15:08 10° WNW 21:19:12 56° SSW 21:23:15 10° SE
STARLINK-1237 3.6 21:16:52 10° WSW 21:20:59 66° SSE 21:25:06 10° ENE
CENTAUR R/B 3.6 21:13:25 10° NW 21:21:00 60° NE 21:29:33 10° ESE
NOSS 2-2 (D) 4.2 21:18:34 10° S 21:21:35 25° ESE 21:24:53 10° ENE
CZ-2C R/B 3.7 21:17:17 10° N 21:22:43 53° WNW 21:28:09 10° SW
STARLINK-1218 3.8 21:19:33 10° W 21:23:42 78° N 21:27:52 10° E
STARLINK-1084 3.9 21:20:07 10° WNW 21:24:10 53° SSW 21:28:12 10° SE
ATLAS 3B R/B 3.8 21:17:53 10° NW 21:24:10 40° NNE 21:30:36 10° E
STARLINK-1202 3.6 21:21:50 10° WSW 21:25:57 69° SSE 21:30:05 10° ENE
Cosmos 1674 Rocket 3.6 21:21:38 10° S 21:26:00 73° E 21:30:25 10° NNE
SL-27 R/B 3.8 21:22:48 10° N 21:26:01 29° ENE 21:29:11 10° ESE
NOSS 3-2 (C) 4.3 21:19:13 10° NW 21:26:24 66° NE 21:34:35 10° ESE
STARLINK-1254 3.8 21:24:33 10° W 21:28:42 77° N 21:32:51 10° E
Cosmos 1378 Rocket 3.7 21:24:32 10° S 21:28:53 61° E 21:33:13 10° NNE
Cosmos 1766 3.9 21:25:05 10° N 21:28:56 45° ENE 21:32:47 10° SSE
STARLINK-1098 4.0 21:25:06 10° WNW 21:29:08 50° SSW 21:33:08 10° SE
STARLINK-1231 3.8 21:29:31 10° W 21:33:40 76° N 21:37:49 10° E
STARLINK-1123 4.1 21:30:04 10° WNW 21:34:04 47° SSW 21:37:56 11° SE
STARLINK-1246 3.5 21:31:47 10° WSW 21:35:55 75° SSE 21:40:04 10° ENE
Cosmos 1900 4.4 21:31:01 10° NW 21:36:04 87° SW 21:41:01 11° SE
IGS 5A 3.8 21:32:50 10° S 21:36:57 63° WSW 21:41:07 10° NNW
Cosmos 2297 3.7 21:32:25 10° SSW 21:38:02 66° ESE 21:43:44 10° NE
Cosmos 1943 Rocket 2.9 21:33:12 10° SSE 21:38:06 33° ESE 21:43:04 10° NE
STARLINK-1232 3.8 21:34:31 10° W 21:38:40 76° N 21:42:50 10° E
NOSS 2-2 (E) 3.5 21:35:15 10° SSW 21:38:42 44° SE 21:42:40 10° NE
STARLINK-1097 4.2 21:35:06 10° WNW 21:39:04 45° SSW 21:42:45 12° SE
STARLINK-1224 3.5 21:36:44 10° WSW 21:40:52 78° SSE 21:45:02 10° ENE
Cosmos 2082 Rocket 3.6 21:36:05 10° NW 21:41:08 33° WSW 21:46:08 10° SSW
Cosmos 332 Rocket 4.1 21:36:44 10° SSW 21:41:39 74° WNW 21:46:33 10° NNE
Landsat 7 4.3 21:37:40 10° S 21:42:22 60° WSW 21:47:06 10° NNW
Cosmos 1452 Rocket 4.1 21:37:52 10° SW 21:43:06 62° WNW 21:48:22 10° NNE
STARLINK-1208 3.8 21:39:29 10° W 21:43:38 75° N 21:47:47 10° E
STARLINK-1099 4.2 21:40:04 10° WNW 21:44:00 42° SSW 21:47:31 12° SE
SAR-Lupe-2 3.6 21:40:26 10° NNE 21:44:04 83° WNW 21:47:39 10° SSW
Cosmos 1461 2.9 21:41:37 10° SW 21:45:49 83° SE 21:50:15 10° NE
STARLINK-1225 3.6 21:41:43 10° WSW 21:45:52 81° SSE 21:50:02 10° ENE
STARLINK-1212 2.9 21:43:49 10° WNW 21:46:57 81° N 21:50:04 10° E
STARLINK-1105 2.9 21:44:18 10° WNW 21:47:25 81° N 21:50:32 10° E
STARLINK-1247 2.9 21:45:10 10° WNW 21:48:18 81° N 21:51:26 10° E
Cosmos 1975 Rocket 3.8 21:44:36 11° SSE 21:48:29 36° E 21:52:32 10° NNE
STARLINK-1271 3.8 21:44:30 10° W 21:48:39 75° N 21:52:49 10° E
STARLINK-1227 2.9 21:45:40 10° WNW 21:48:47 82° N 21:51:54 10° E
STARLINK-1104 4.3 21:45:04 10° W 21:48:57 40° SSW 21:52:18 13° SE
BREEZE-M DEB (TANK) 4.3 21:32:01 10° SW 21:49:29 52° SSE 21:54:00 10° E
Meteor 1-23 Rocket 4.3 21:43:49 10° S 21:49:31 88° ESE 21:55:11 10° NNE
STARLINK-1226 2.9 21:46:32 10° WNW 21:49:39 82° N 21:52:47 10° E
STARLINK-1215 2.9 21:47:25 10° WNW 21:50:32 82° N 21:53:41 10° E
BREEZE-M DEB (TANK) 3.0 21:45:47 10° WSW 21:50:33 64° S 21:54:00 10° E
STARLINK-1230 3.6 21:46:41 10° WSW 21:50:50 83° SSE 21:55:00 10° ENE
STARLINK-1217 2.9 21:49:14 10° WNW 21:52:22 83° N 21:55:30 10° E
STARLINK-1229 2.9 21:50:09 10° WNW 21:53:17 84° N 21:56:24 10° E
STARLINK-1154 3.8 21:49:29 10° W 21:53:38 75° N 21:57:47 10° E
STARLINK-1144 4.4 21:50:04 10° W 21:53:55 37° SSW 21:57:05 14° SSE
STARLINK-1270 2.9 21:51:02 10° WNW 21:54:11 84° NNE 21:57:19 10° E
Cosmos 2369 Rocket 3.0 21:49:19 10° SSE 21:54:18 33° ESE 21:59:16 10° NE
STARLINK-1243 3.6 21:51:41 10° WSW 21:55:50 86° SSE 22:00:00 10° ENE
STARLINK-1189 2.9 21:52:50 10° WNW 21:55:58 85° NNE 21:59:06 10° ESE
STARLINK-1188 2.9 21:53:45 10° WNW 21:56:53 86° NNE 22:00:01 10° ESE
STARLINK-1187 2.8 21:54:51 10° WNW 21:57:57 90° NW 22:01:04 10° ESE
STARLINK-1197 3.8 21:54:27 10° W 21:58:36 75° N 22:02:46 10° E
SPOT 5 3.2 21:53:31 10° SSE 21:58:45 80° WSW 22:04:10 10° NNW
STARLINK-1103 4.5 21:55:03 10° W 21:58:51 35° SW 22:01:51 15° SSE
STARLINK-1191 2.8 21:56:11 10° WNW 21:59:18 87° NNE 22:02:25 10° ESE
STARLINK-1221 2.8 21:57:09 10° WNW 22:00:15 88° N 22:03:23 10° ESE
STARLINK-1236 3.6 21:56:38 10° WSW 22:00:48 88° SSE 22:04:58 10° ENE
STARLINK-1222 2.8 21:58:00 10° WNW 22:01:07 88° N 22:04:13 10° ESE
STARLINK-1214 2.8 21:58:53 10° WNW 22:02:00 89° N 22:05:07 10° ESE
NOSS 2-2 (C) 3.2 21:59:44 10° SSW 22:03:15 58° SE 22:07:19 10° NE
STARLINK-1198 3.8 21:59:26 10° W 22:03:35 76° N 22:07:44 10° E
EXPRESS MD2 3.9 22:00:23 10° SW 22:03:50 50° SSE 22:10:34 10° E
Meteor 1-22 Rocket 4.3 21:57:53 10° NNW 22:03:52 88° ENE 22:09:05 13° SSE
ERS-1 Rocket 3.3 21:59:46 10° S 22:04:45 62° WSW 22:09:46 10° NNW
Okean 2 3.6 22:02:00 12° S 22:05:45 57° E 22:09:51 10° NNE
BREEZE M DEB (TANK) 2.8 22:02:13 10° WSW 22:06:15 36° S 22:08:22 10° E
Cosmos 2026 Rocket 4.3 22:00:23 11° SSE 22:06:15 55° E 22:12:27 10° NNE
ATLAS 2AS CENTAUR R/B 3.8 22:00:44 10° S 22:07:25 31° ESE 22:14:06 10° NE
Cosmos 1953 4.1 22:04:42 10° NNE 22:07:47 21° ENE 22:10:41 11° ESE
STARLINK-1228 3.1 22:04:19 10° WNW 22:07:49 79° SSW 22:11:08 11° ESE
NOSS 3-2 (A) 4.2 22:00:29 10° NW 22:07:49 71° SW 22:15:11 14° SSE
STARLINK-1199 3.8 22:04:26 10° W 22:08:36 76° N 22:12:45 10° E
Cosmos 1805 3.6 22:04:56 10° NNW 22:08:50 61° W 22:12:24 12° S
Cosmos 1470 3.5 22:05:26 10° N 22:09:07 39° ENE 22:11:51 16° SE
STARLINK-1235 2.9 22:07:04 10° WNW 22:10:18 78° SSW 22:13:12 12° ESE
Okean 1 Rocket 4.1 22:06:08 10° NNW 22:10:21 42° W 22:14:31 10° SSW
STARLINK-1269 3.6 22:06:36 10° WSW 22:10:46 87° NNW 22:14:56 10° ENE
Cosmos 1066 Rocket 4.5 22:06:59 10° SSW 22:12:20 66° WNW 22:17:41 10° N
Resurs 01 Rocket 4.2 22:10:27 10° WSW 22:12:54 14° W 22:15:22 10° NW
Cosmos 968 Rocket 3.7 22:08:11 10° NNW 22:13:21 63° ENE 22:17:31 15° SE
STARLINK-1210 3.8 22:09:25 10° W 22:13:34 77° N 22:17:43 10° E
STARLINK-1200 3.6 22:11:34 10° W 22:15:44 85° N 22:19:54 10° ENE
Cosmos 1455 Rocket 3.0 22:11:42 10° N 22:16:05 75° E 22:19:25 17° SSE
Cosmos 2278 Rocket 4.3 22:13:13 10° WSW 22:18:13 31° NW 22:23:15 10° NNE
STARLINK-1219 3.8 22:14:23 10° W 22:18:33 78° N 22:22:42 10° E
USA 238 DEB 4.1 22:12:40 10° NW 22:19:43 62° SW 22:25:51 15° SSE
USA 238 4.1 22:12:46 10° NW 22:19:49 62° SW 22:25:58 15° SSE
STARLINK-1192 3.7 22:16:34 10° W 22:20:44 84° N 22:24:54 10° ENE
ATLAS 5 CENTAUR R/B 3.4 22:21:46 15° SE 22:21:46 15° SE 22:23:06 10° E
Nadezhda 4 Rocket 4.4 22:15:21 10° SSW 22:21:25 64° WNW 22:27:31 10° N
Cosmos 1758 3.8 22:18:41 10° N 22:22:39 48° ENE 22:25:25 18° SE
Abrixas rocket 4.3 22:21:57 10° SW 22:22:57 11° SSW 22:23:18 11° SSW
STARLINK-1211 3.7 22:19:23 10° W 22:23:33 79° N 22:27:42 10° E
SL-4 R/B 3.2 22:21:07 10° SSW 22:25:11 28° SE 22:29:18 10° E
STARLINK-1244 3.7 22:21:33 10° W 22:25:42 82° N 22:29:52 10° E
ERBS 4.0 22:24:05 10° WNW 22:27:10 35° N 22:30:17 10° ENE
Cosmos 1842 3.2 22:24:07 15° S 22:27:15 74° E 22:31:09 10° NNE
Terra 2.2 22:23:15 14° S 22:27:20 60° WSW 22:32:04 10° NNW
STARLINK-1234 3.0 22:24:49 10° WNW 22:28:04 63° SSW 22:30:16 19° SE
STARLINK-1245 3.7 22:24:21 10° W 22:28:31 80° N 22:32:41 10° E
STARLINK-1138 3.7 22:26:32 10° W 22:30:42 80° N 22:34:51 10° E
STARLINK-1233 3.7 22:29:19 10° W 22:33:29 81° N 22:37:39 10° E
Cosmos 1503 Rocket 4.2 22:28:11 10° NNW 22:33:31 68° ENE 22:37:35 17° SE
STARLINK-1209 3.1 22:31:00 10° WNW 22:34:14 57° SSW 22:36:13 21° SE
STARLINK-1143 3.7 22:31:30 10° W 22:35:39 79° N 22:39:49 10° E
STARLINK-1204 3.7 22:34:19 10° WNW 22:38:28 83° N 22:42:38 10° E
STARLINK-1241 3.7 22:36:32 10° W 22:40:41 78° N 22:44:50 10° E
Cosmos 1733 4.3 22:37:59 10° NNW 22:41:33 38° W 22:44:30 14° SSW
STARLINK-1238 3.6 22:39:19 10° WNW 22:43:29 84° N 22:47:39 10° E
Cosmos 2263 4.4 22:39:18 14° S 22:43:59 53° ESE 22:49:28 10° NE
STARLINK-1239 3.8 22:41:30 10° W 22:45:39 77° N 22:49:49 10° E
Cosmos 1536 Rocket 4.1 22:45:43 21° SSE 22:48:15 44° E 22:52:26 10° NNE
STARLINK-1201 3.6 22:44:18 10° WNW 22:48:27 86° N 22:52:37 10° ESE
MTI 4.2 22:46:03 10° N 22:49:10 57° WNW 22:51:36 15° SSW
JB-3 4.4 22:45:17 10° NNE 22:49:29 84° ESE 22:52:30 18° SSW
STARLINK-1240 3.8 22:46:28 10° W 22:50:38 77° N 22:54:47 10° E
Cosmos 1271 Rocket 2.8 22:49:29 22° S 22:51:49 62° E 22:55:43 10° NNE
Cosmos 1242 Rocket 2.5 22:49:25 20° S 22:51:54 87° E 22:55:36 10° NNE
Cosmos 1544 Rocket 3.7 22:48:32 10° NNW 22:52:51 67° W 22:55:47 20° S
Cosmos 1354 Rocket 4.0 22:47:31 10° NNW 22:52:52 84° ENE 22:56:35 20° SSE
STARLINK-1206 3.6 22:49:17 10° WNW 22:53:27 88° N 22:57:37 10° ESE
STARLINK-60 3.5 22:52:21 22° SSW 22:53:44 34° SSE 22:56:40 10° E
Cosmos 1486 Rocket 4.5 22:49:44 10° NNW 22:54:54 53° WSW 22:58:32 19° S
Meteor 1-21 4.2 22:50:09 14° S 22:54:59 88° E 23:00:38 10° NNE
STARLINK-1216 3.8 22:51:27 10° W 22:55:37 76° N 22:59:45 10° E
STARLINK-1203 3.8 22:51:31 10° W 22:55:44 76° N 22:59:57 10° E
COSMOS 2455 3.6 22:52:50 19° SSE 22:56:11 33° ESE 23:01:29 10° NE
Cosmos 1302 Rocket 4.3 22:51:29 10° SSW 22:56:47 72° WNW 23:02:06 10° NNE
Spot 4 3.9 22:53:29 21° SSE 22:56:47 76° ENE 23:01:39 10° NNW
Cosmos 1833 4.2 22:51:37 10° NNW 22:57:17 75° WSW 23:01:10 21° SSE
STARLINK-1205 3.6 22:54:15 10° WNW 22:58:25 90° SSW 23:02:35 10° ESE
Cosmos 2297 Rocket 4.1 22:54:55 10° NNW 22:59:36 26° NE 23:04:16 10° E
STARLINK-1237 3.8 22:56:26 10° W 23:00:35 76° N 23:04:45 10° E
USA 215 3.3 22:54:28 10° ESE 23:01:03 86° NNE 23:07:39 10° WNW
SL-27 R/B 4.0 22:57:59 10° NW 23:01:04 27° WSW 23:03:01 17° SSW
Cosmos 1707 2.8 22:59:44 24° S 23:01:55 65° E 23:05:47 10° NNE
Lacrosse 4 Rocket 4.3 23:00:25 10° NNW 23:02:55 15° NNE 23:05:23 10° ENE
STARLINK-1218 3.5 22:59:15 10° WNW 23:03:25 87° SSW 23:07:34 10° ESE
Helios 1A 4.5 23:01:35 13° ESE 23:04:33 28° ENE 23:08:09 10° N
Cosmos 1726 2.3 23:01:43 10° N 23:05:26 64° ENE 23:07:20 26° SSE
STARLINK-1202 3.8 23:01:26 10° W 23:05:35 75° N 23:09:44 10° E
STARLINK-1254 3.5 23:04:14 10° WNW 23:08:23 85° SSW 23:12:32 10° ESE
COSMOS 2487 2.4 23:05:24 10° NNW 23:08:53 75° ENE 23:10:32 28° SSE
ALOS 2 3.1 23:07:47 21° SE 23:10:32 53° ENE 23:14:50 10° N
NOSS 2-2 (D) 4.5 23:08:18 10° WSW 23:11:52 45° NNW 23:16:07 10° NE
CENTAUR R/B 3.4 23:04:13 10° NW 23:11:59 57° SW 23:18:17 19° SSE
STARLINK-1231 3.5 23:09:12 10° WNW 23:13:21 82° SSW 23:17:27 10° ESE
Meteor 1-16 Rocket 4.2 23:08:43 10° N 23:14:17 75° ENE 23:17:49 22° SSE
Cosmos 1867 3.7 23:10:00 10° NW 23:15:23 60° SW 23:18:45 23° SSE
ATLAS 3B R/B 2.7 23:08:44 10° NW 23:15:32 85° SW 23:21:09 17° SE
STARLINK-1246 3.8 23:11:25 10° W 23:15:34 75° N 23:19:44 10° E
EO 1 Del DPAF 3.1 23:13:31 10° NNE 23:17:20 88° ESE 23:19:29 25° SSW
STARLINK-1232 3.5 23:14:12 10° WNW 23:18:21 79° SSW 23:22:15 12° ESE
Cosmos 1606 Rocket 4.2 23:14:55 10° N 23:19:05 44° ENE 23:21:36 21° SE
Cosmos 1992 Rocket 3.9 23:16:14 18° SSW 23:20:10 80° ESE 23:25:25 10° NNE
STARLINK-1224 3.8 23:16:24 10° W 23:20:33 76° N 23:24:42 10° E
SeaSat 1 2.5 23:16:11 10° NE 23:21:06 60° ESE 23:24:20 21° SSW
Cosmos 1943 Rocket 2.9 23:16:13 10° SW 23:21:38 53° NW 23:27:10 10° NNE
STARLINK-1212 3.5 23:19:44 10° W 23:22:37 35° SSW 23:22:54 34° SSW
STARLINK-1105 3.5 23:20:13 10° W 23:23:05 34° SSW 23:23:20 34° SSW
STARLINK-1208 3.5 23:19:09 10° WNW 23:23:18 76° SSW 23:27:00 13° ESE
STARLINK-29 3.8 23:24:02 31° SE 23:24:02 31° SE 23:26:33 10° E
NOSS 5 (C) 4.3 23:20:40 10° NW 23:23:45 82° SW 23:25:32 27° SE
STARLINK-1247 3.6 23:21:05 10° W 23:23:59 34° SSW 23:24:14 34° SSW
STARLINK-1227 3.6 23:21:35 10° W 23:24:27 34° SSW 23:24:39 33° SSW
STARLINK-1226 3.6 23:22:27 10° W 23:25:19 33° SSW 23:25:31 33° SSW
STARLINK-1225 3.8 23:21:24 10° W 23:25:33 76° N 23:29:43 10° E
ATLAS CENTAUR R/B 2.1 23:24:15 10° NW 23:26:02 34° NNE 23:28:39 10° E
STARLINK-1215 3.6 23:23:21 10° W 23:26:13 33° SSW 23:26:23 33° SSW
STARLINK-1217 3.7 23:25:10 10° W 23:28:01 32° SSW 23:28:07 32° SSW
STARLINK-1271 3.5 23:24:10 10° WNW 23:28:18 73° SSW 23:31:49 14° ESE
STARLINK-1229 3.7 23:26:05 10° W 23:28:56 32° SSW 23:29:01 32° SSW
NOSS 3-4 (A) 3.4 23:23:52 13° SSW 23:29:16 66° SE 23:35:38 10° NE
NOSS 3-4 (C) 3.4 23:24:01 13° SSW 23:29:22 65° SE 23:35:44 10° NE
STARLINK-1270 3.7 23:26:59 10° W 23:29:49 32° SSW 23:29:53 31° SSW
STARLINK-1230 3.8 23:26:22 10° W 23:30:32 77° N 23:34:41 10° E
RESURS DK-1 3.6 23:29:48 22° SE 23:30:54 25° ESE 23:34:19 10° NE
STARLINK-1189 3.8 23:28:47 10° W 23:31:36 31° SSW 23:31:36 31° SSW
Cosmos 292 Rocket 4.4 23:26:51 10° SW 23:31:37 57° WNW 23:36:26 10° NNE
Meteor 2-10 4.2 23:26:41 10° NNW 23:31:40 61° W 23:34:44 23° S
STARLINK-1188 3.8 23:29:42 10° W 23:32:29 30° SSW 23:32:29 30° SSW
Cosmos 2315 Rocket 4.1 23:26:34 10° N 23:32:48 74° ENE 23:36:58 22° SSE
STARLINK-1154 3.5 23:29:09 10° WNW 23:33:16 70° SSW 23:36:35 15° ESE
STARLINK-1187 4.0 23:30:53 10° W 23:33:23 27° SW 23:33:23 27° SW
STARLINK-1191 3.9 23:32:10 10° W 23:34:46 29° SW 23:34:46 29° SW
STARLINK-1243 3.7 23:31:22 10° W 23:35:32 77° N 23:39:41 10° E
STARLINK-1221 3.9 23:33:07 10° W 23:35:42 28° SW 23:35:42 28° SW
Cosmos 1340 Rocket 3.0 23:32:04 10° NNW 23:36:06 64° W 23:38:06 28° S
STARLINK-1222 3.9 23:33:58 10° W 23:36:30 28° SW 23:36:30 28° SW
Cosmos 2227 Rocket 3.6 23:31:38 10° NNW 23:36:51 35° NE 23:42:01 10° ESE
Cosmos 1626 4.0 23:36:00 16° ESE 23:37:25 20° E 23:40:09 10° NE
STARLINK-1214 4.0 23:34:52 10° W 23:37:23 28° SW 23:37:23 28° SW
Cosmos 2369 Rocket 2.9 23:32:33 10° SW 23:38:06 54° NW 23:43:39 10° NNE
ATLAS CENTAUR R/B 1.4 23:35:42 24° SSW 23:38:08 59° SE 23:42:10 10° NE
STARLINK-1197 3.5 23:34:06 10° WNW 23:38:14 67° SSW 23:41:21 17° ESE
S3M 4.3 23:32:33 10° NNW 23:38:35 58° W 23:42:52 20° SSW
STARLINK-1236 3.7 23:36:20 10° W 23:40:31 78° N 23:44:39 10° E
Cosmos 1908 3.2 23:36:54 10° N 23:40:44 75° ENE 23:42:29 31° SSE
Cosmos 1025 Rocket 3.7 23:39:50 18° SW 23:42:49 49° WNW 23:47:01 10° N
STARLINK-1198 3.6 23:39:05 10° WNW 23:43:12 64° SSW 23:46:07 18° SE
Thor Agena Rocket 4.0 23:38:16 10° N 23:43:31 62° WNW 23:47:47 15° SW
Aureole 3 2.7 23:40:16 10° NNW 23:43:33 69° W 23:44:31 39° S
Cosmos 1953 3.0 23:40:36 10° NNW 23:44:25 44° W 23:46:22 24° SSW
STARLINK-1228 4.5 23:41:50 10° W 23:44:34 24° SW 23:44:34 24° SW
STARLINK-1199 3.6 23:44:05 10° WNW 23:48:11 61° SSW 23:50:56 20° SE
Nimbus 7 Rocket 4.4 23:43:45 10° NNE 23:49:53 83° ESE 23:54:04 21° SSW
SL-4 R/B 1.5 23:50:08 35° W 23:50:08 35° W 23:52:06 10° NNW
STARLINK-1269 3.7 23:46:19 10° W 23:50:29 81° N 23:54:39 10° E
Cosmos 1656 Rocket 3.8 23:46:09 13° SW 23:51:10 75° WNW 23:56:46 10° NNE
Meteor 2-19 Rocket 4.5 23:47:40 21° SSW 23:52:00 81° W 23:58:10 10° N
STARLINK-1210 3.6 23:49:03 10° WNW 23:53:08 58° SSW 23:55:41 21° SE
KORONAS-FOTON 3.8 23:52:25 32° S 23:54:02 68° E 23:57:54 10° NNE
STARLINK-1200 3.6 23:51:17 10° W 23:55:27 82° N 23:59:37 10° E
